Regional Weather Roundup
Issued by NWS Glasgow, MT

Home | Current Version | Previous Version | Text Only | Print | Product List | Glossary On
Versions: 1 2 3 4 5 6 7 8 9 10 11 12 13 14 15 16 17 18 19 20 21 22 23 24 25 26 27 28 29 30 31 32 33 34 35 36 37 38 39 40 41 42 43 44 45 46 47 48 49 50
000
ASUS45 KGGW 262115
RWRGGW
HOURLY REGIONAL WEATHER ROUNDUP FOR NORTHEAST MONTANA
NATIONAL WEATHER SERVICE GLASGOW MONTANA
300 PM MDT SAT MAY 26 2018

NOTE: "FAIR" INDICATES FEW OR NO CLOUDS BELOW 12,000 FEET WITH NO
SIGNIFICANT WEATHER AND/OR OBSTRUCTIONS TO VISISBILITY.

NORTHEAST MONTANA


CITY           SKY/WX    TMP DP  RH WIND       PRES   REMARKS
GLASGOW        MOSUNNY   89  52  28 SE12G22   29.70S
WOLF POINT     MOSUNNY   91  54  28 MISG      29.69F
JORDAN           N/A     87  58  37 S6        29.69F
SIDNEY         MOSUNNY   87  57  35 E8        29.71F
GLENDIVE       MOSUNNY   88  53  30 E7        29.70F

FORT PECK REPORTS


CITY           SKY/WX    TMP DP  RH WIND       PRES   REMARKS

SOUTHEAST MONTANA


CITY           SKY/WX    TMP DP  RH WIND       PRES   REMARKS
BILLINGS       PTSUNNY   77  57  50 NW8       29.76S
MILES CITY     SUNNY     88  60  38 SE10      29.68F
BAKER          SUNNY     88  56  33 E14G23    29.74F
LIVINGSTON     MOSUNNY   78  53  41 NW14      29.82S

CENTRAL MONTANA


CITY           SKY/WX    TMP DP  RH WIND       PRES   REMARKS
HAVRE          SUNNY     84  46  26 SW12G18   29.72S
LEWISTOWN      MOSUNNY   77  52  41 N10       29.83S
GREAT FALLS    MOSUNNY   78  47  33 VRB6G17   29.83S
CUT BANK       MOSUNNY   70  45  40 NW13      29.87S
HELENA         PTSUNNY   71  48  43 W12       29.84R
BUTTE          PTSUNNY   67  44  43 W18G28    29.91S
BOZEMAN        MOSUNNY   76  48  37 W5        29.84F

WESTERN MONTANA


CITY           SKY/WX    TMP DP  RH WIND       PRES   REMARKS
MISSOULA       SUNNY     72  52  49 NW12      29.89F
KALISPELL      NOT AVBL

NORTH DAKOTA


CITY           SKY/WX    TMP DP  RH WIND       PRES   REMARKS
WILLISTON      MOSUNNY   90  45  21 CALM      29.72F
DICKINSON      SUNNY     91  48  22 SE7       29.73F
MINOT          MOSUNNY   92  43  18 W14       29.70F
BISMARCK       SUNNY     92  50  23 SW6       29.73F

SOUTHERN SASKATCHEWAN


CITY           SKY/WX    TMP DP  RH WIND       PRES   REMARKS
REGINA         PTSUNNY   81  54  39 W6        29.67S
ESTEVAN        CLOUDY    88  48  25 S9        29.70F
SWIFT CURRENT  MOSUNNY   84  50  30 W14G22    29.68S




USA.gov is the U.S. government's official web portal to all federal, state and local government web resources and services.